Weather in Pavlovo

Russia / Smolensk Oblast     54°32′13″N   31°22′32″E
temp.,
°C
wind,
m/s
gust,
m/s
humid.,
%
clouds,
%
prec.,
mm/h
press.,
hPa
HPBL,
m
13 april, tue
tue1300:00+9ese3690100 0.1 1022152
03:00+9sse1194100 0.4 102113
06:00+9ese119482 0.0 102110
09:00+12se238381 0.0 1020274
12:00+15se4670100 0.0 1020831
15:00+16s6865100 0.6 10191112
18:00+13sse5978100 0.1 1018709
21:00+11sse4889100 0.2 1019316
14 april, wed
wed1400:00+10se369293 0.0 1018205
03:00+9sse2593100 0.0 1017117
06:00+9sse369267 0.0 1017195
09:00+10sse3685100 0.0 1017328
12:00+12sse477799 0.0 1017553
15:00+15sse455550 0.0 10151404
18:00+14se2361100 0.1 1014648
21:00+11ese2382100 0.4 101557
15 april, thu
thu1500:00+10ese1296100 1.3 101491
03:00+10ese1294100 2.1 101471
06:00+9ene2495100 0.3 1014154
09:00+11se238795 0.4 1014425
12:00+14se4465100 0.8 10141076
15:00+14e556497 1.3 10141102
18:00+11e5981100 0.6 1014701
21:00+10ne388773 0.4 1015170
16 april, fri
fri1600:00+9ene4894100 0.1 1015232
03:00+10ene5993100 0.4 1015484
06:00+9ne4895100 2.9 1015393
09:00+10ene61187100 3.0 1016601
12:00+8ene61292100 3.0 1017671
15:00+11ene598599 4.8 1018782
18:00+11ene6108398 0.1 1018960
21:00+10ene7158684 0.2 1020650
17 april, sat
sat1700:00+9ene81590100 1.9 1021564
03:00+8ene71488100 3.2 1022572
06:00+6ene71488100 0.0 1023537
09:00+7ene7147985 0.0 1025605
12:00+11ene811635 0.0 1026955
15:00+13ene811492 0.0 10261399
18:00+12e712510 0.0 10271361
21:00+8e714560 0.0 1029553